| time (UTC) | temp F | wind direction | speed knots | gust knots | rain 1hr in | rain 24hr in | rain mn in | humidity % | barometer mb |
| 20260510103057 | 56 | 186 | 2.6 | 7.8 | 0.00 | 0.58 | 0.00 | 100 | 1011.2 |
| 20260510101550 | 56 | 191 | 1.7 | 5.2 | 0.00 | 0.58 | 0.00 | 100 | 1011.1 |
| 20260510100044 | 55 | 181 | 0.9 | 3.5 | 0.00 | 0.58 | 0.00 | 100 | 1011.1 |
| 20260510094545 | 55 | 120 | 1.7 | 3.5 | 0.00 | 0.58 | 0.00 | 100 | 1010.6 |
| 20260510093041 | 55 | 148 | 0.9 | 2.6 | 0.00 | 0.58 | 0.00 | 100 | 1010.9 |
| 20260510091547 | 54 | 195 | 0.0 | 1.7 | 0.00 | 0.58 | 0.00 | 100 | 1011.0 |
| 20260510090056 | 54 | 0 | 0.0 | 0.9 | 0.00 | 0.58 | 0.00 | 100 | 1011.0 |
| 20260510084545 | 54 | 0 | 0.0 | 0.0 | 0.00 | 0.58 | 0.00 | 100 | 1011.1 |
| 20260510083045 | 53 | 0 | 0.0 | 0.0 | 0.00 | 0.58 | 0.00 | 100 | 1011.0 |
| 20260510081546 | 53 | 0 | 0.0 | 0.9 | 0.00 | 0.58 | 0.00 | 100 | 1010.7 |
| 20260510080042 | 54 | 0 | 0.9 | 2.6 | 0.00 | 0.58 | 0.00 | 100 | 1010.8 |
| 20260510074547 | 53 | 0 | 0.0 | 0.9 | 0.00 | 0.58 | 0.00 | 100 | 1011.2 |
| 20260510073049 | 54 | 152 | 0.0 | 1.7 | 0.00 | 0.58 | 0.00 | 100 | 1010.8 |
| 20260510071547 | 53 | 0 | 0.0 | 2.6 | 0.00 | 0.58 | 0.00 | 100 | 1010.7 |
| 20260510070048 | 53 | 0 | 0.0 | 0.9 | 0.00 | 0.58 | 0.00 | 100 | 1010.7 |
| 20260510064541 | 53 | 0 | 0.0 | 2.6 | 0.00 | 0.58 | 0.00 | 100 | 1010.7 |
| 20260510063048 | 53 | 0 | 0.0 | 2.6 | 0.00 | 0.58 | 0.00 | 100 | 1010.8 |
| 20260510061557 | 52 | 0 | 0.0 | 1.7 | 0.00 | 0.58 | 0.00 | 100 | 1011.3 |
| 20260510060050 | 52 | 0 | 0.0 | 0.0 | 0.00 | 0.58 | 0.00 | 100 | 1011.5 |
| 20260510054557 | 52 | 0 | 0.0 | 1.7 | 0.00 | 0.58 | 0.00 | 100 | 1011.3 |
| 20260510053045 | 52 | 0 | 0.0 | 0.9 | 0.00 | 0.58 | 0.00 | 100 | 1011.5 |
| 20260510051541 | 52 | 0 | 0.0 | 0.9 | 0.00 | 0.58 | 0.00 | 100 | 1011.7 |
| 20260510050053 | 52 | 0 | 0.0 | 2.6 | 0.00 | 0.58 | 0.00 | 100 | 1011.6 |
| 20260510044548 | 52 | 0 | 0.0 | 2.6 | 0.00 | 0.58 | 0.00 | 100 | 1011.6 |
| 20260510043047 | 52 | 0 | 0.0 | 2.6 | 0.01 | 0.58 | 0.00 | 100 | 1011.6 |
| 20260510041601 | 51 | 0 | 0.0 | 1.7 | 0.01 | 0.58 | 0.00 | 100 | 1011.9 |
| 20260510040045 | 51 | 0 | 0.0 | 1.7 | 0.01 | 0.58 | 0.00 | 100 | 1011.9 |
| 20260510034556 | 51 | 0 | 0.0 | 2.6 | 0.01 | 0.58 | 0.58 | 100 | 1012.0 |
| 20260510033052 | 51 | 0 | 0.0 | 1.7 | 0.00 | 0.58 | 0.58 | 100 | 1012.2 |
| 20260510031553 | 51 | 61 | 0.0 | 0.9 | 0.00 | 0.58 | 0.58 | 100 | 1012.7 |
| 20260510030046 | 51 | 5 | 0.0 | 1.7 | 0.00 | 0.58 | 0.58 | 100 | 1012.6 |
| 20260510024604 | 51 | 0 | 0.0 | 0.0 | 0.01 | 0.58 | 0.58 | 100 | 1012.7 |
| 20260510023041 | 51 | 355 | 0.9 | 1.7 | 0.01 | 0.58 | 0.58 | 100 | 1012.6 |
| 20260510021548 | 50 | 355 | 1.7 | 3.5 | 0.02 | 0.58 | 0.58 | 100 | 1012.6 |
| 20260510020047 | 50 | 360 | 0.9 | 2.6 | 0.02 | 0.58 | 0.58 | 100 | 1012.7 |
| 20260510014608 | 50 | 9 | 0.0 | 1.7 | 0.01 | 0.57 | 0.57 | 100 | 1012.9 |
| 20260510013059 | 50 | 355 | 0.0 | 2.6 | 0.01 | 0.57 | 0.57 | 100 | 1012.9 |
| 20260510011544 | 50 | 0 | 0.0 | 1.7 | 0.01 | 0.56 | 0.56 | 100 | 1012.8 |
| 20260510010041 | 50 | 0 | 0.0 | 2.6 | 0.01 | 0.56 | 0.56 | 100 | 1012.7 |
| 20260510004555 | 50 | 19 | 0.9 | 3.5 | 0.01 | 0.56 | 0.56 | 100 | 1012.7 |
| 20260510003048 | 49 | 0 | 1.7 | 5.2 | 0.02 | 0.56 | 0.56 | 100 | 1012.5 |
| 20260510001546 | 49 | 80 | 1.7 | 5.2 | 0.03 | 0.55 | 0.55 | 100 | 1012.4 |
| 20260510000048 | 49 | 61 | 0.9 | 5.2 | 0.05 | 0.55 | 0.55 | 100 | 1012.2 |
| 20260509234546 | 49 | 0 | 0.0 | 4.3 | 0.06 | 0.55 | 0.55 | 100 | 1012.2 |
| 20260509233053 | 49 | 82 | 0.9 | 6.1 | 0.07 | 0.54 | 0.54 | 100 | 1012.0 |
| 20260509231557 | 49 | 94 | 0.0 | 4.3 | 0.07 | 0.52 | 0.52 | 100 | 1012.2 |
| 20260509230048 | 49 | 0 | 0.0 | 3.5 | 0.08 | 0.50 | 0.50 | 100 | 1012.5 |
| 20260509224546 | 49 | 0 | 0.9 | 4.3 | 0.09 | 0.49 | 0.49 | 100 | 1012.7 |
| 20260509223051 | 48 | 105 | 0.9 | 3.5 | 0.11 | 0.47 | 0.47 | 99 | 1012.8 |
| 20260509221547 | 48 | 61 | 2.6 | 7.8 | 0.10 | 0.45 | 0.45 | 99 | 1012.8 |
| 20260509220045 | 49 | 23 | 0.9 | 7.0 | 0.08 | 0.42 | 0.42 | 99 | 1012.9 |
| 20260509214550 | 49 | 170 | 1.7 | 7.0 | 0.08 | 0.40 | 0.40 | 98 | 1012.8 |
| 20260509213052 | 49 | 0 | 0.9 | 7.8 | 0.04 | 0.36 | 0.36 | 98 | 1013.1 |
| 20260509211554 | 49 | 123 | 0.0 | 6.1 | 0.03 | 0.35 | 0.35 | 98 | 1013.1 |
| 20260509210054 | 49 | 57 | 1.7 | 6.1 | 0.02 | 0.34 | 0.34 | 98 | 1013.3 |
| 20260509204547 | 49 | 126 | 0.9 | 6.1 | 0.00 | 0.32 | 0.32 | 98 | 1013.1 |
| 20260509203044 | 50 | 79 | 2.6 | 7.8 | 0.01 | 0.32 | 0.32 | 98 | 1012.7 |
| 20260509201542 | 50 | 31 | 0.9 | 7.0 | 0.03 | 0.32 | 0.32 | 98 | 1013.2 |
| 20260509200047 | 51 | 166 | 0.9 | 7.0 | 0.04 | 0.32 | 0.32 | 98 | 1012.8 |
| 20260509194546 | 50 | 109 | 0.9 | 4.3 | 0.06 | 0.32 | 0.32 | 98 | 1013.3 |
| 20260509193047 | 49 | 0 | 1.7 | 7.0 | 0.08 | 0.31 | 0.31 | 97 | 1013.8 |
| 20260509191546 | 49 | 86 | 1.7 | 5.2 | 0.09 | 0.29 | 0.29 | 96 | 1013.7 |
| 20260509190051 | 48 | 0 | 0.9 | 4.3 | 0.11 | 0.28 | 0.28 | 95 | 1014.0 |
| 20260509184546 | 48 | 0 | 0.9 | 3.5 | 0.13 | 0.26 | 0.26 | 94 | 1014.0 |
| 20260509183043 | 47 | 0 | 0.9 | 5.2 | 0.12 | 0.23 | 0.23 | 94 | 1014.3 |
| 20260509181544 | 47 | 136 | 0.0 | 5.2 | 0.12 | 0.20 | 0.20 | 92 | 1014.3 |
| 20260509180045 | 47 | 169 | 0.9 | 3.5 | 0.11 | 0.17 | 0.17 | 91 | 1014.4 |
| 20260509174541 | 47 | 0 | 0.0 | 3.5 | 0.09 | 0.13 | 0.13 | 89 | 1014.4 |
| 20260509173114 | 47 | 0 | 0.9 | 3.5 | 0.09 | 0.11 | 0.11 | 87 | 1014.4 |
| 20260509171548 | 47 | 147 | 0.9 | 5.2 | 0.07 | 0.08 | 0.08 | 86 | 1014.1 |
| 20260509170055 | 47 | 123 | 2.6 | 5.2 | 0.05 | 0.06 | 0.06 | 83 | 1014.2 |
| 20260509164544 | 47 | 162 | 1.7 | 3.5 | 0.04 | 0.04 | 0.04 | 80 | 1014.2 |
| 20260509163042 | 48 | 175 | 0.9 | 4.3 | 0.02 | 0.02 | 0.02 | 76 | 1014.3 |
| 20260509161549 | 49 | 80 | 0.9 | 5.2 | 0.01 | 0.01 | 0.01 | 73 | 1014.5 |
| 20260509160050 | 49 | 196 | 3.5 | 6.1 | 0.00 | 0.00 | 0.00 | 67 | 1014.6 |
| 20260509154547 | 49 | 176 | 2.6 | 6.1 | 0.00 | 0.00 | 0.00 | 65 | 1014.6 |
| 20260509153046 | 49 | 207 | 3.5 | 8.7 | 0.00 | 0.00 | 0.00 | 57 | 1014.7 |
| 20260509151602 | 50 | 236 | 2.6 | 7.0 | 0.00 | 0.00 | 0.00 | 56 | 1014.7 |
| 20260509150046 | 51 | 250 | 3.5 | 9.6 | 0.00 | 0.00 | 0.00 | 52 | 1014.6 |
| 20260509144540 | 51 | 156 | 6.1 | 14.8 | 0.00 | 0.00 | 0.00 | 46 | 1014.3 |
| 20260509143054 | 52 | 189 | 5.2 | 11.3 | 0.00 | 0.00 | 0.00 | 40 | 1014.0 |
| 20260509141549 | 53 | 217 | 2.6 | 10.4 | 0.00 | 0.00 | 0.00 | 43 | 1014.0 |
| 20260509140049 | 52 | 134 | 3.5 | 8.7 | 0.00 | 0.00 | 0.00 | 46 | 1014.0 |
| 20260509134547 | 52 | 185 | 3.5 | 7.8 | 0.00 | 0.00 | 0.00 | 41 | 1014.0 |
| 20260509133041 | 52 | 0 | 1.7 | 7.8 | 0.00 | 0.00 | 0.00 | 45 | 1014.0 |
| 20260509131559 | 52 | 217 | 4.3 | 7.8 | 0.00 | 0.00 | 0.00 | 44 | 1014.1 |
| 20260509130119 | 52 | 227 | 3.5 | 6.1 | 0.00 | 0.00 | 0.00 | 49 | 1014.3 |
| 20260509124549 | 51 | 233 | 1.7 | 5.2 | 0.00 | 0.00 | 0.00 | 48 | 1014.4 |
| 20260509123116 | 49 | 208 | 0.9 | 4.3 | 0.00 | 0.00 | 0.00 | 55 | 1014.4 |
| 20260509121542 | 48 | 258 | 2.6 | 4.3 | 0.00 | 0.00 | 0.00 | 56 | 1014.5 |
| 20260509120048 | 47 | 236 | 2.6 | 6.1 | 0.00 | 0.00 | 0.00 | 59 | 1014.5 |
| 20260509114621 | 47 | 230 | 3.5 | 4.3 | 0.00 | 0.00 | 0.00 | 60 | 1014.4 |
| 20260509113052 | 45 | 217 | 2.6 | 4.3 | 0.00 | 0.00 | 0.00 | 63 | 1014.5 |
| 20260509111545 | 44 | 232 | 1.7 | 4.3 | 0.00 | 0.00 | 0.00 | 64 | 1014.4 |
| 20260509110057 | 43 | 226 | 1.7 | 3.5 | 0.00 | 0.00 | 0.00 | 66 | 1014.5 |
| 20260509104541 | 42 | 202 | 1.7 | 4.3 | 0.00 | 0.00 | 0.00 | 69 | 1014.4 |